Regional Weather Roundup
Issued by NWS

Home | Current Version | Previous Version | Graphics & Text | Print | Product List | Glossary On
Versions: 1 2 3 4 5 6 7 8 9 10 11 12 13 14 15 16 17 18 19 20 21 22 23 24 25 26 27 28 29 30 31 32 33 34 35 36 37 38 39 40 41 42 43 44 45 46 47 48 49 50
000
ASUS43 KDMX 261901
RWRIA

WEATHER ROUNDUP FOR IOWA
NATIONAL WEATHER SERVICE DES MOINES IA
200 PM CDT WED JUL 26 2017

NOTE: "FAIR" INDICATES FEW OR NO CLOUDS BELOW 12,000 FEET WITH NO
SIGNIFICANT WEATHER AND/OR OBSTRUCTIONS TO VISIBILITY.

* - THESE STATIONS ARE NOT NWS STATIONS...THUS NOT UNDER NWS
QUALITY CONTROL.  THEY ALSO DO NOT REPORT WEATHER SUCH
AS PRECIPITATION OR FOG.

IAZ001>003-012>014-020>022-031>034-043>046-262000-
   NORTHWEST IOWA

CITY           SKY/WX    TMP DP  RH WIND       PRES   REMARKS
CARROLL *      LGT RAIN  72  72 100 E5        30.01S
CHEROKEE *     MOSUNNY   78  71  78 E7        30.01F HX  81
DENISON *      CLOUDY    73  72  94 CALM      30.02S
ORANGE CITY *  MOSUNNY   82  70  65 E6        30.02S HX  86
SHELDON *      PTSUNNY   81  70  69 NE8       30.01S HX  84
SIOUX CITY     CLOUDY    80  73  79 E8        30.00S HX  84
SPENCER        CLOUDY    79  70  74 SE8       30.02S HX  82
STORM LAKE *     N/A     73  70  88 E8        30.03S
$$

IAZ055>058-069>071-079>083-090>094-262000-
   SOUTHWEST IOWA

CITY           SKY/WX    TMP DP  RH WIND       PRES   REMARKS
ATLANTIC *     PTSUNNY   77  73  88 CALM      29.99S
AUDUBON *      LGT RAIN  77  72  83 S3        30.02R
CLARINDA *     CLOUDY    77  75  94 E3        30.01S
COUNCIL BLFS * DRIZZLE   75  75 100 CALM      29.99F
CRESTON *      LGT RAIN  75  73  94 E7        30.03S
HARLAN  *      CLOUDY    77  73  88 CALM      30.03S
LAMONI         CLOUDY    80  73  79 CALM      30.00F HX  84
RED OAK *      CLOUDY    77  73  88 SE5       29.99F
SHENANDOAH *   CLOUDY    77  73  88 SE3       29.98F
$$

IAZ047>049-059>061-072>074-084-262000-
   CENTRAL IOWA

CITY           SKY/WX    TMP DP  RH WIND       PRES   REMARKS
AMES           CLOUDY    80  74  81 E7        30.00S HX  85
ANKENY *       CLOUDY    79  72  78 VRB3      30.01S HX  82
BOONE *        CLOUDY    79  72  78 E10       30.01R HX  82
CHARITON *     CLOUDY    81  72  74 CALM      30.01S HX  84
DES MOINES     CLOUDY    78  74  87 SE5       30.00S HX  81
GRINNELL*      LGT RAIN  78  73  83 CALM      30.01F HX  80
KNOXVILLE *    CLOUDY    77  72  83 CALM      29.99F
MARSHALLTOWN   CLOUDY    78  73  84 E5        30.00F HX  81
NEWTON *       PTSUNNY   77  72  83 CALM      30.00F
PELLA *        CLOUDY    78  70  76 CALM      30.01S HX  80
PERRY *        PTSUNNY   79  74  86 CALM      30.01S HX  82
$$

IAZ004>006-015-016-023>025-035-036-262000-
   NORTH CENTRAL IOWA

CITY           SKY/WX    TMP DP  RH WIND       PRES   REMARKS
ALGONA *       CLOUDY    75  73  94 E5        30.03S
ESTHERVILLE    CLOUDY    77  70  79 S3        30.01F
FORT DODGE *   CLOUDY    73  70  88 NE3       30.03R
MASON CITY     LGT RAIN  75  70  84 NE5       30.05R
FOREST CITY *  PTSUNNY   75  70  83 CALM      30.04R
WEBSTER CITY * CLOUDY    75  70  83 NE7       30.00R
IOWA FALLS *   PTSUNNY   75  70  82 NE6       30.01F
$$

IAZ007>011-017>019-026>030-037>042-050>054-066-262000-
   NORTHEAST IOWA

CITY           SKY/WX    TMP DP  RH WIND       PRES   REMARKS
CHARLES CITY * CLOUDY    75  73  94 NE6       30.03S
DECORAH *      CLOUDY    73  72  94 SW8G16    30.06R
DUBUQUE        CLOUDY    78  73  84 S5        30.03S HX  81
MONTICELLO *   CLOUDY    82  75  78 S5        30.00F HX  89
OELWEIN *      CLOUDY    77  73  88 N5        30.03S
WATERLOO       CLOUDY    77  71  82 N6        29.99F
$$

IAZ064-065-067-068-078-262000-
   EAST CENTRAL IOWA

CITY           SKY/WX    TMP DP  RH WIND       PRES   REMARKS
DAVENPORT      CLOUDY    83  75  77 SE6       30.02F HX  90
IOWA CITY      CLOUDY    84  75  74 VRB5      30.00F HX  92
MUSCATINE *    CLOUDY    86  75  70 S5        29.99F HX  95
QUAD CITIES    CLOUDY    85  75  72 SW3       29.99  HX  93
$$

IAZ062-063-075>077-085>089-095>099-262000-
   SOUTHEAST IOWA

CITY           SKY/WX    TMP DP  RH WIND       PRES   REMARKS
BURLINGTON     CLOUDY    85  77  77 SE5       30.00F HX  95
FAIRFIELD *    CLOUDY    86  73  66 CALM      29.98F HX  93
FORT MADISON * CLOUDY    88  79  74 S5        30.01F HX 102
KEOKUK *       PTSUNNY   90  77  66 SW7       29.99F HX 102
OSKALOOSA *      N/A     83  73  71 W6        30.01S HX  89
OTTUMWA        PTSUNNY   85  73  67 W9        30.00S HX  91
WASHINGTON *   PTSUNNY   84  77  79 CALM      30.00F HX  94
$$

ABBREVIATIONS USED IN REMARKS
   TC - TEMPERATURES IN CELSIUS
  WCI - WIND CHILL INDEX
   HX - HEAT INDEX
  VSB - VISIBILITY
$$




USA.gov is the U.S. government's official web portal to all federal, state and local government web resources and services.